START_TIME,STEP,MOV.,A46,t_acc.,A13,t_acc.,M47,t_acc.,A17,t_acc.,A28,t_acc.,M38,t_acc.
1980-11-13 18:00:14.060 ,6,0,,0,1.,4.8,0.,4.8,,0,0.,4.8,0.,4.8
1980-11-13 18:00:18.860 ,6,0,,0,0.,4.8,0.,4.8,,0,0.,4.8,0.,4.8
1980-11-13 18:00:23.660 ,6,0,,0,0.,4.8,0.,4.8,,0,0.,4.8,0.,4.8
1980-11-13 18:00:28.460 ,6,0,,0,0.,4.8,0.,4.8,,0,0.,4.8,0.,4.8
1980-11-13 18:00:33.260 ,6,0,,0,1.,4.8,0.,4.8,,0,0.,4.8,0.,4.8
1980-11-13 18:00:38.060 ,7,0,,0,0.,4.8,0.,4.8,,0,0.,4.8,0.,4.8
1980-11-13 18:00:42.860 ,7,0,,0,0.,4.8,0.,4.8,,0,0.,4.8,0.,4.8
1980-11-13 18:00:47.660 ,7,0,,0,0.,4.8,0.,4.8,,0,0.,4.8,0.,4.8
1980-11-13 18:00:52.460 ,7,0,,0,0.,4.8,0.,4.8,,0,0.,4.8,0.,4.8
1980-11-13 18:00:57.260 ,7,0,,0,0.,4.8,0.,4.8,,0,0.,4.8,0.,4.8
1980-11-13 18:01:02.060 ,7,0,,0,0.,4.8,0.,4.8,,0,0.,4.8,0.,4.8
1980-11-13 18:01:06.860 ,7,0,,0,0.,4.8,0.,4.8,,0,0.,4.8,0.,4.8
1980-11-13 18:01:11.660 ,7,0,,0,0.,4.8,0.,4.8,,0,0.,4.8,0.,4.8
1980-11-13 18:01:16.460 ,7,0,,0,0.,4.8,0.,4.8,,0,0.,4.8,0.,4.8
1980-11-13 18:01:21.260 ,7,0,,0,0.,4.8,0.,4.8,,0,0.,4.8,0.,4.8
1980-11-13 18:01:26.060 ,7,0,,0,1.,4.8,0.,4.8,,0,0.,4.8,0.,4.8
1980-11-13 18:01:30.860 ,7,0,,0,0.,4.8,0.,4.8,,0,0.,4.8,0.,4.8
1980-11-13 18:01:35.660 ,7,0,,0,1.,4.8,0.,4.8,,0,0.,4.8,0.,4.8
1980-11-13 18:01:40.460 ,7,0,,0,0.,4.8,0.,4.8,,0,0.,4.8,0.,4.8
1980-11-13 18:01:45.260 ,7,0,,0,0.,4.8,0.,4.8,,0,0.,4.8,0.,4.8
1980-11-13 18:01:50.060 ,7,0,,0,0.,4.8,0.,4.8,,0,0.,4.8,0.,4.8
1980-11-13 18:01:54.860 ,7,0,,0,0.,4.8,0.,4.8,,0,0.,4.8,0.,4.8
1980-11-13 18:01:59.660 ,7,0,,0,1.,4.8,0.,4.8,,0,0.,4.8,0.,4.8
1980-11-13 18:02:04.460 ,7,0,,0,0.,4.8,0.,4.8,,0,0.,4.8,0.,4.8
1980-11-13 18:02:09.260 ,7,0,,0,0.,4.8,0.,4.8,,0,0.,4.8,0.,4.8
1980-11-13 18:02:14.060 ,6,0,,0,0.,4.8,0.,4.8,,0,0.,4.8,0.,4.8
1980-11-13 18:02:18.860 ,6,0,,0,0.,4.8,0.,4.8,,0,0.,4.8,0.,4.8
1980-11-13 18:02:23.660 ,6,0,,0,1.,4.8,0.,4.8,,0,0.,4.8,0.,4.8
1980-11-13 18:02:28.460 ,6,0,,0,0.,4.8,0.,4.8,,0,0.,4.8,0.,4.8
1980-11-13 18:02:33.260 ,6,0,,0,0.,4.8,0.,4.8,,0,0.,4.8,0.,4.8
1980-11-13 18:02:38.060 ,6,0,,0,0.,4.8,0.,4.8,,0,0.,4.8,0.,4.8
1980-11-13 18:02:42.860 ,6,0,,0,0.,4.8,0.,4.8,,0,0.,4.8,0.,4.8
1980-11-13 18:02:47.660 ,6,0,,0,0.,4.8,0.,4.8,,0,0.,4.8,0.,4.8
1980-11-13 18:02:52.460 ,6,0,,0,0.,4.8,0.,4.8,,0,0.,4.8,0.,4.8
1980-11-13 18:02:57.260 ,6,0,,0,0.,4.8,0.,4.8,,0,0.,4.8,0.,4.8
1980-11-13 18:03:02.060 ,5,0,,0,1.,4.8,0.,4.8,,0,0.,4.8,0.,4.8
1980-11-13 18:03:06.860 ,5,0,,0,0.,4.8,0.,4.8,,0,0.,4.8,0.,4.8
1980-11-13 18:03:11.660 ,5,0,,0,0.,4.8,0.,4.8,,0,0.,4.8,0.,4.8
1980-11-13 18:03:16.460 ,5,0,,0,0.,4.8,0.,4.8,,0,0.,4.8,0.,4.8
1980-11-13 18:03:21.260 ,5,0,,0,0.,4.8,0.,4.8,,0,0.,4.8,0.,4.8
1980-11-13 18:03:26.060 ,5,0,,0,0.,4.8,0.,4.8,,0,0.,4.8,0.,4.8
1980-11-13 18:03:30.860 ,5,0,,0,0.,4.8,0.,4.8,,0,0.,4.8,0.,4.8
1980-11-13 18:03:35.660 ,5,0,,0,0.,4.8,0.,4.8,,0,0.,4.8,0.,4.8
1980-11-13 18:03:40.460 ,5,0,,0,0.,4.8,0.,4.8,,0,0.,4.8,0.,4.8
1980-11-13 18:03:45.260 ,5,0,,0,0.,4.8,0.,4.8,,0,0.,4.8,0.,4.8
1980-11-13 18:03:50.060 ,4,0,,0,0.,4.8,0.,4.8,,0,0.,4.8,0.,4.8
1980-11-13 18:03:54.860 ,4,0,,0,0.,4.8,0.,4.8,,0,0.,4.8,0.,4.8
1980-11-13 18:03:59.660 ,4,0,,0,0.,4.8,0.,4.8,,0,0.,4.8,0.,4.8
1980-11-13 18:04:04.460 ,4,0,,0,0.,4.8,0.,4.8,,0,0.,4.8,0.,4.8
1980-11-13 18:04:09.260 ,4,0,,0,0.,4.8,0.,4.8,,0,0.,4.8,0.,4.8
1980-11-13 18:04:14.060 ,4,0,,0,0.,4.8,0.,4.8,,0,0.,4.8,0.,4.8
1980-11-13 18:04:18.860 ,4,0,,0,0.,4.8,0.,4.8,,0,0.,4.8,0.,4.8
1980-11-13 18:04:23.660 ,4,0,,0,0.,4.8,0.,4.8,,0,0.,4.8,0.,4.8
1980-11-13 18:04:28.460 ,4,0,,0,0.,4.8,0.,4.8,,0,0.,4.8,0.,4.8
1980-11-13 18:04:33.260 ,4,0,,0,0.,4.8,0.,4.8,,0,0.,4.8,0.,4.8
1980-11-13 18:04:38.060 ,3,0,,0,0.,4.8,0.,4.8,,0,0.,4.8,0.,4.8
1980-11-13 18:04:42.860 ,3,0,,0,0.,4.8,0.,4.8,,0,0.,4.8,0.,4.8
1980-11-13 18:04:47.660 ,3,0,,0,0.,4.8,0.,4.8,,0,0.,4.8,0.,4.8
1980-11-13 18:04:52.460 ,3,0,,0,0.,4.8,0.,4.8,,0,0.,4.8,0.,4.8
1980-11-13 18:04:57.260 ,3,0,,0,0.,4.8,0.,4.8,,0,0.,4.8,1.,4.8
1980-11-13 18:05:02.060 ,3,0,,0,0.,4.8,0.,4.8,,0,0.,4.8,0.,4.8
1980-11-13 18:05:06.860 ,3,0,,0,1.,4.8,0.,4.8,,0,0.,4.8,0.,4.8
1980-11-13 18:05:11.660 ,3,0,,0,0.,4.8,0.,4.8,,0,0.,4.8,0.,4.8
1980-11-13 18:05:16.460 ,3,0,,0,0.,4.8,0.,4.8,,0,0.,4.8,0.,4.8
1980-11-13 18:05:21.260 ,3,0,,0,0.,4.8,0.,4.8,,0,0.,4.8,0.,4.8
1980-11-13 18:05:26.060 ,2,0,,0,0.,4.8,0.,4.8,,0,0.,4.8,0.,4.8
1980-11-13 18:05:30.860 ,2,0,,0,0.,4.8,0.,4.8,,0,0.,4.8,0.,4.8
1980-11-13 18:05:35.660 ,2,0,,0,0.,4.8,0.,4.8,,0,0.,4.8,0.,4.8
1980-11-13 18:05:40.460 ,2,0,,0,0.,4.8,0.,4.8,,0,0.,4.8,0.,4.8
1980-11-13 18:05:45.260 ,2,0,,0,1.,4.8,0.,4.8,,0,0.,4.8,0.,4.8
1980-11-13 18:05:50.060 ,2,0,,0,0.,4.8,0.,4.8,,0,0.,4.8,0.,4.8
1980-11-13 18:05:54.860 ,2,0,,0,1.,4.8,0.,4.8,,0,0.,4.8,0.,4.8
1980-11-13 18:05:59.660 ,2,0,,0,0.,4.8,0.,4.8,,0,0.,4.8,0.,4.8
1980-11-13 18:06:04.460 ,2,0,,0,0.,4.8,0.,4.8,,0,0.,4.8,0.,4.8
1980-11-13 18:06:09.260 ,2,0,,0,0.,4.8,0.,4.8,,0,0.,4.8,0.,4.8
1980-11-13 18:06:14.060 ,1,0,,0,0.,4.8,0.,4.8,,0,0.,4.8,0.,4.8
1980-11-13 18:06:18.860 ,1,0,,0,0.,4.8,0.,4.8,,0,0.,4.8,0.,4.8
1980-11-13 18:06:23.660 ,1,0,,0,0.,4.8,0.,4.8,,0,0.,4.8,0.,4.8
1980-11-13 18:06:28.460 ,1,0,,0,2.,4.8,0.,4.8,,0,0.,4.8,0.,4.8
1980-11-13 18:06:33.260 ,1,0,,0,0.,4.8,0.,4.8,,0,0.,4.8,0.,4.8
1980-11-13 18:06:38.060 ,1,0,,0,0.,4.8,0.,4.8,,0,0.,4.8,0.,4.8
1980-11-13 18:06:42.860 ,1,0,,0,0.,4.8,0.,4.8,,0,0.,4.8,0.,4.8
1980-11-13 18:06:47.660 ,1,0,,0,1.,4.8,0.,4.8,,0,0.,4.8,0.,4.8
1980-11-13 18:06:52.460 ,1,0,,0,0.,4.8,0.,4.8,,0,0.,4.8,0.,4.8
1980-11-13 18:06:57.260 ,1,0,,0,0.,4.8,0.,4.8,,0,0.,4.8,0.,4.8
1980-11-13 18:07:02.060 ,0,0,,0,0.,4.8,0.,4.8,,0,0.,4.8,0.,4.8
1980-11-13 18:07:06.860 ,0,0,,0,0.,4.8,0.,4.8,,0,0.,4.8,0.,4.8
1980-11-13 18:07:11.660 ,0,0,,0,0.,4.8,0.,4.8,,0,0.,4.8,0.,4.8
1980-11-13 18:07:16.460 ,0,0,,0,0.,4.8,0.,4.8,,0,0.,4.8,0.,4.8
1980-11-13 18:07:21.260 ,0,0,,0,1.,4.8,0.,4.8,,0,0.,4.8,0.,4.8
1980-11-13 18:07:26.060 ,0,0,,0,0.,4.8,0.,4.8,,0,0.,4.8,0.,4.8
1980-11-13 18:07:30.860 ,0,0,,0,0.,4.8,0.,4.8,,0,0.,4.8,0.,4.8
1980-11-13 18:07:35.660 ,0,0,,0,2.,4.8,0.,4.8,,0,0.,4.8,0.,4.8
1980-11-13 18:07:40.460 ,0,0,,0,2.,4.8,0.,4.8,,0,0.,4.8,0.,4.8
1980-11-13 18:07:45.260 ,0,0,,0,0.,4.8,0.,4.8,,0,0.,4.8,0.,4.8
1980-11-13 18:07:50.060 ,0,0,,0,0.,4.8,0.,4.8,,0,0.,4.8,0.,4.8
1980-11-13 18:07:54.860 ,0,0,,0,0.,4.8,0.,4.8,,0,0.,4.8,0.,4.8
1980-11-13 18:07:59.660 ,0,0,,0,0.,4.8,0.,4.8,,0,0.,4.8,0.,4.8
1980-11-13 18:08:04.460 ,0,0,,0,1.,4.8,0.,4.8,,0,0.,4.8,0.,4.8
1980-11-13 18:08:09.260 ,0,0,,0,0.,4.8,0.,4.8,,0,0.,4.8,0.,4.8
1980-11-13 18:08:14.060 ,0,0,,0,0.,4.8,0.,4.8,,0,0.,4.8,0.,4.8
1980-11-13 18:08:18.860 ,0,0,,0,0.,4.8,0.,4.8,,0,0.,4.8,0.,4.8
1980-11-13 18:08:23.660 ,0,0,,0,0.,4.8,0.,4.8,,0,0.,4.8,0.,4.8
1980-11-13 18:08:28.460 ,0,0,,0,0.,4.8,0.,4.8,,0,0.,4.8,0.,4.8
1980-11-13 18:08:33.260 ,0,0,,0,0.,4.8,0.,4.8,,0,0.,4.8,0.,4.8
1980-11-13 18:08:38.060 ,1,0,,0,2.,4.8,0.,4.8,,0,0.,4.8,0.,4.8
1980-11-13 18:08:42.860 ,1,0,,0,0.,4.8,0.,4.8,,0,0.,4.8,0.,4.8
1980-11-13 18:08:47.660 ,1,0,,0,0.,4.8,0.,4.8,,0,0.,4.8,0.,4.8
1980-11-13 18:08:52.460 ,1,0,,0,1.,4.8,0.,4.8,,0,0.,4.8,0.,4.8
1980-11-13 18:08:57.260 ,1,0,,0,0.,4.8,0.,4.8,,0,0.,4.8,0.,4.8
1980-11-13 18:09:02.060 ,1,0,,0,1.,4.8,0.,4.8,,0,0.,4.8,0.,4.8
1980-11-13 18:09:06.860 ,1,0,,0,0.,4.8,0.,4.8,,0,0.,4.8,0.,4.8
1980-11-13 18:09:11.660 ,1,0,,0,0.,4.8,0.,4.8,,0,0.,4.8,0.,4.8
1980-11-13 18:09:16.460 ,1,0,,0,0.,4.8,0.,4.8,,0,0.,4.8,0.,4.8
1980-11-13 18:09:21.260 ,1,0,,0,0.,4.8,0.,4.8,,0,0.,4.8,0.,4.8
1980-11-13 18:09:26.060 ,2,0,,0,0.,4.8,0.,4.8,,0,0.,4.8,0.,4.8
1980-11-13 18:09:30.860 ,2,0,,0,0.,4.8,0.,4.8,,0,0.,4.8,0.,4.8
1980-11-13 18:09:35.660 ,2,0,,0,0.,4.8,0.,4.8,,0,0.,4.8,0.,4.8
1980-11-13 18:09:40.460 ,2,0,,0,0.,4.8,0.,4.8,,0,0.,4.8,0.,4.8
1980-11-13 18:09:45.260 ,2,0,,0,0.,4.8,0.,4.8,,0,0.,4.8,0.,4.8
1980-11-13 18:09:50.060 ,2,0,,0,1.,4.8,0.,4.8,,0,0.,4.8,0.,4.8
1980-11-13 18:09:54.860 ,2,0,,0,0.,4.8,0.,4.8,,0,0.,4.8,0.,4.8
1980-11-13 18:09:59.660 ,2,0,,0,0.,4.8,0.,4.8,,0,0.,4.8,0.,4.8
1980-11-13 18:10:04.460 ,2,0,,0,0.,4.8,0.,4.8,,0,0.,4.8,0.,4.8
1980-11-13 18:10:09.260 ,2,0,,0,0.,4.8,0.,4.8,,0,0.,4.8,0.,4.8
1980-11-13 18:10:14.060 ,3,0,,0,0.,4.8,0.,4.8,,0,0.,4.8,0.,4.8
1980-11-13 18:10:18.860 ,3,0,,0,0.,4.8,0.,4.8,,0,0.,4.8,0.,4.8
1980-11-13 18:10:23.660 ,3,0,,0,0.,4.8,0.,4.8,,0,0.,4.8,0.,4.8
1980-11-13 18:10:28.460 ,3,0,,0,0.,4.8,0.,4.8,,0,0.,4.8,0.,4.8
1980-11-13 18:10:33.260 ,3,0,,0,0.,4.8,0.,4.8,,0,0.,4.8,0.,4.8
1980-11-13 18:10:38.060 ,3,0,,0,1.,4.8,0.,4.8,,0,0.,4.8,0.,4.8
1980-11-13 18:10:42.860 ,3,0,,0,0.,4.8,0.,4.8,,0,0.,4.8,0.,4.8
1980-11-13 18:10:47.660 ,3,0,,0,1.,4.8,0.,4.8,,0,0.,4.8,0.,4.8
1980-11-13 18:10:52.460 ,3,0,,0,0.,4.8,0.,4.8,,0,0.,4.8,0.,4.8
1980-11-13 18:10:57.260 ,3,0,,0,1.,4.8,0.,4.8,,0,0.,4.8,0.,4.8
1980-11-13 18:11:02.060 ,4,0,,0,0.,4.8,0.,4.8,,0,0.,4.8,0.,4.8
1980-11-13 18:11:06.860 ,4,0,,0,2.,4.8,0.,4.8,,0,0.,4.8,0.,4.8
1980-11-13 18:11:11.660 ,4,0,,0,0.,4.8,0.,4.8,,0,0.,4.8,0.,4.8
1980-11-13 18:11:16.460 ,4,0,,0,0.,4.8,0.,4.8,,0,0.,4.8,0.,4.8
1980-11-13 18:11:21.260 ,4,0,,0,0.,4.8,0.,4.8,,0,0.,4.8,0.,4.8
1980-11-13 18:11:26.060 ,4,0,,0,0.,4.8,0.,4.8,,0,0.,4.8,0.,4.8
1980-11-13 18:11:30.860 ,4,0,,0,0.,4.8,0.,4.8,,0,0.,4.8,0.,4.8
1980-11-13 18:11:35.660 ,4,0,,0,0.,4.8,0.,4.8,,0,0.,4.8,0.,4.8
1980-11-13 18:11:40.460 ,4,0,,0,1.,4.8,0.,4.8,,0,0.,4.8,0.,4.8
1980-11-13 18:11:45.260 ,4,0,,0,0.,4.8,0.,4.8,,0,0.,4.8,0.,4.8
1980-11-13 18:11:50.060 ,5,0,,0,0.,4.8,0.,4.8,,0,0.,4.8,0.,4.8
1980-11-13 18:11:54.860 ,5,0,,0,0.,4.8,0.,4.8,,0,0.,4.8,0.,4.8
1980-11-13 18:11:59.660 ,5,0,,0,0.,4.8,0.,4.8,,0,0.,4.8,0.,4.8
1980-11-13 18:12:04.460 ,5,0,,0,0.,4.8,0.,4.8,,0,0.,4.8,0.,4.8
1980-11-13 18:12:09.260 ,5,0,,0,0.,4.8,0.,4.8,,0,0.,4.8,0.,4.8
1980-11-13 18:12:14.060 ,5,0,,0,0.,4.8,0.,4.8,,0,0.,4.8,0.,4.8
1980-11-13 18:12:18.860 ,5,0,,0,0.,4.8,0.,4.8,,0,0.,4.8,0.,4.8
1980-11-13 18:12:23.660 ,5,0,,0,0.,4.8,0.,4.8,,0,0.,4.8,0.,4.8
1980-11-13 18:12:28.460 ,5,0,,0,0.,4.8,0.,4.8,,0,0.,4.8,0.,4.8
1980-11-13 18:12:33.260 ,5,0,,0,0.,4.8,0.,4.8,,0,0.,4.8,0.,4.8
1980-11-13 18:12:38.060 ,6,0,,0,0.,4.8,0.,4.8,,0,0.,4.8,0.,4.8
1980-11-13 18:12:42.860 ,6,0,,0,0.,4.8,0.,4.8,,0,0.,4.8,0.,4.8
1980-11-13 18:12:47.660 ,6,0,,0,0.,4.8,0.,4.8,,0,0.,4.8,0.,4.8
1980-11-13 18:12:52.460 ,6,0,,0,0.,4.8,0.,4.8,,0,0.,4.8,0.,4.8
1980-11-13 18:12:57.260 ,6,0,,0,0.,4.8,0.,4.8,,0,0.,4.8,0.,4.8
1980-11-13 18:13:02.060 ,6,0,,0,1.,4.8,0.,4.8,,0,0.,4.8,0.,4.8
1980-11-13 18:13:06.860 ,6,0,,0,0.,4.8,0.,4.8,,0,0.,4.8,0.,4.8
1980-11-13 18:13:11.660 ,6,0,,0,0.,4.8,0.,4.8,,0,0.,4.8,0.,4.8
1980-11-13 18:13:16.460 ,6,0,,0,0.,4.8,0.,4.8,,0,0.,4.8,0.,4.8
1980-11-13 18:13:21.260 ,6,0,,0,0.,4.8,0.,4.8,,0,0.,4.8,0.,4.8
1980-11-13 18:13:26.060 ,7,0,,0,1.,4.8,0.,4.8,,0,0.,4.8,0.,4.8
1980-11-13 18:13:30.860 ,7,0,,0,0.,4.8,0.,4.8,,0,0.,4.8,0.,4.8
1980-11-13 18:13:35.660 ,7,0,,0,0.,4.8,0.,4.8,,0,0.,4.8,0.,4.8
1980-11-13 18:13:40.460 ,7,0,,0,0.,4.8,0.,4.8,,0,0.,4.8,0.,4.8
1980-11-13 18:13:45.260 ,7,0,,0,0.,4.8,0.,4.8,,0,0.,4.8,0.,4.8
1980-11-13 18:13:50.060 ,7,0,,0,0.,4.8,0.,4.8,,0,0.,4.8,0.,4.8
1980-11-13 18:13:54.860 ,7,0,,0,1.,4.8,0.,4.8,,0,0.,4.8,0.,4.8
1980-11-13 18:13:59.660 ,7,0,,0,0.,4.8,0.,4.8,,0,0.,4.8,0.,4.8
1980-11-13 18:14:04.460 ,7,0,,0,0.,4.8,0.,4.8,,0,0.,4.8,0.,4.8
1980-11-13 18:14:09.260 ,7,0,,0,0.,4.8,0.,4.8,,0,0.,4.8,0.,4.8
1980-11-13 18:14:14.060 ,7,0,,0,1.,4.8,0.,4.8,,0,0.,4.8,0.,4.8
1980-11-13 18:14:18.860 ,7,0,,0,0.,4.8,0.,4.8,,0,0.,4.8,0.,4.8
1980-11-13 18:14:23.660 ,7,0,,0,0.,4.8,0.,4.8,,0,0.,4.8,0.,4.8
1980-11-13 18:14:28.460 ,7,0,,0,0.,4.8,0.,4.8,,0,0.,4.8,0.,4.8
1980-11-13 18:14:33.260 ,7,0,,0,0.,4.8,0.,4.8,,0,0.,4.8,0.,4.8
1980-11-13 18:14:38.060 ,7,0,,0,0.,4.8,0.,4.8,,0,0.,4.8,0.,4.8
1980-11-13 18:14:42.860 ,7,0,,0,0.,4.8,0.,4.8,,0,0.,4.8,0.,4.8
1980-11-13 18:14:47.660 ,7,0,,0,0.,4.8,0.,4.8,,0,0.,4.8,0.,4.8
1980-11-13 18:14:52.460 ,7,0,,0,0.,4.8,0.,4.8,,0,0.,4.8,0.,4.8
1980-11-13 18:14:57.260 ,7,0,,0,0.,4.8,0.,4.8,,0,0.,4.8,0.,4.8
1980-11-13 18:15:02.060 ,6,0,,0,0.,4.8,0.,4.8,,0,0.,4.8,0.,4.8
1980-11-13 18:15:06.860 ,6,0,,0,0.,4.8,0.,4.8,,0,0.,4.8,0.,4.8
1980-11-13 18:15:11.660 ,6,0,,0,1.,4.8,0.,4.8,,0,0.,4.8,0.,4.8
1980-11-13 18:15:16.460 ,6,0,,0,0.,4.8,0.,4.8,,0,0.,4.8,0.,4.8
1980-11-13 18:15:21.260 ,6,0,,0,1.,4.8,0.,4.8,,0,0.,4.8,0.,4.8
1980-11-13 18:15:26.060 ,6,0,,0,0.,4.8,0.,4.8,,0,0.,4.8,0.,4.8
1980-11-13 18:15:30.860 ,6,0,,0,1.,4.8,0.,4.8,,0,0.,4.8,0.,4.8
1980-11-13 18:15:35.660 ,6,0,,0,0.,4.8,0.,4.8,,0,0.,4.8,0.,4.8
1980-11-13 18:15:40.460 ,6,0,,0,0.,4.8,0.,4.8,,0,0.,4.8,0.,4.8
1980-11-13 18:15:45.260 ,6,0,,0,0.,4.8,0.,4.8,,0,0.,4.8,0.,4.8
1980-11-13 18:15:50.060 ,5,0,,0,1.,4.8,0.,4.8,,0,0.,4.8,0.,4.8
1980-11-13 18:15:54.860 ,5,0,,0,0.,4.8,0.,4.8,,0,0.,4.8,0.,4.8
1980-11-13 18:15:59.660 ,5,0,,0,0.,4.8,0.,4.8,,0,0.,4.8,0.,4.8
1980-11-13 18:16:04.460 ,5,0,,0,0.,4.8,0.,4.8,,0,0.,4.8,0.,4.8
1980-11-13 18:16:09.260 ,5,0,,0,0.,4.8,0.,4.8,,0,0.,4.8,0.,4.8
1980-11-13 18:16:14.060 ,5,0,,0,0.,4.8,0.,4.8,,0,0.,4.8,0.,4.8
1980-11-13 18:16:18.860 ,5,0,,0,0.,4.8,0.,4.8,,0,0.,4.8,0.,4.8
1980-11-13 18:16:23.660 ,5,0,,0,0.,4.8,0.,4.8,,0,0.,4.8,0.,4.8
1980-11-13 18:16:28.460 ,5,0,,0,1.,4.8,0.,4.8,,0,0.,4.8,0.,4.8
1980-11-13 18:16:33.260 ,5,0,,0,0.,4.8,0.,4.8,,0,0.,4.8,0.,4.8
1980-11-13 18:16:38.060 ,4,0,,0,0.,4.8,0.,4.8,,0,0.,4.8,0.,4.8
1980-11-13 18:16:42.860 ,4,0,,0,1.,4.8,0.,4.8,,0,0.,4.8,0.,4.8
1980-11-13 18:16:47.660 ,4,0,,0,1.,4.8,0.,4.8,,0,0.,4.8,0.,4.8
1980-11-13 18:16:52.460 ,4,0,,0,0.,4.8,0.,4.8,,0,0.,4.8,0.,4.8
1980-11-13 18:16:57.260 ,4,0,,0,0.,4.8,0.,4.8,,0,0.,4.8,0.,4.8
1980-11-13 18:17:02.060 ,4,0,,0,0.,4.8,0.,4.8,,0,0.,4.8,0.,4.8
1980-11-13 18:17:06.860 ,4,0,,0,0.,4.8,0.,4.8,,0,0.,4.8,0.,4.8
1980-11-13 18:17:11.660 ,4,0,,0,0.,4.8,0.,4.8,,0,0.,4.8,0.,4.8
1980-11-13 18:17:16.460 ,4,0,,0,1.,4.8,0.,4.8,,0,0.,4.8,0.,4.8
1980-11-13 18:17:21.260 ,4,0,,0,0.,4.8,0.,4.8,,0,0.,4.8,0.,4.8
1980-11-13 18:17:26.060 ,3,0,,0,0.,4.8,0.,4.8,,0,0.,4.8,0.,4.8
1980-11-13 18:17:30.860 ,3,0,,0,0.,4.8,0.,4.8,,0,0.,4.8,0.,4.8
1980-11-13 18:17:35.660 ,3,0,,0,0.,4.8,0.,4.8,,0,0.,4.8,0.,4.8
1980-11-13 18:17:40.460 ,3,0,,0,0.,4.8,0.,4.8,,0,0.,4.8,0.,4.8
1980-11-13 18:17:45.260 ,3,0,,0,0.,4.8,0.,4.8,,0,0.,4.8,0.,4.8
1980-11-13 18:17:50.060 ,3,0,,0,0.,4.8,0.,4.8,,0,0.,4.8,0.,4.8
1980-11-13 18:17:54.860 ,3,0,,0,0.,4.8,0.,4.8,,0,0.,4.8,0.,4.8
1980-11-13 18:17:59.660 ,3,0,,0,1.,4.8,0.,4.8,,0,0.,4.8,0.,4.8
1980-11-13 18:18:04.460 ,3,0,,0,0.,4.8,0.,4.8,,0,0.,4.8,0.,4.8
1980-11-13 18:18:09.260 ,3,0,,0,0.,4.8,0.,4.8,,0,0.,4.8,0.,4.8
1980-11-13 18:18:14.060 ,2,0,,0,0.,4.8,0.,4.8,,0,0.,4.8,0.,4.8
1980-11-13 18:18:18.860 ,2,0,,0,0.,4.8,0.,4.8,,0,0.,4.8,0.,4.8
1980-11-13 18:18:23.660 ,2,0,,0,0.,4.8,0.,4.8,,0,0.,4.8,0.,4.8
1980-11-13 18:18:28.460 ,2,0,,0,0.,4.8,0.,4.8,,0,0.,4.8,0.,4.8
1980-11-13 18:18:33.260 ,2,0,,0,0.,4.8,0.,4.8,,0,0.,4.8,0.,4.8
1980-11-13 18:18:38.060 ,2,0,,0,0.,4.8,0.,4.8,,0,0.,4.8,0.,4.8
1980-11-13 18:18:42.860 ,2,0,,0,0.,4.8,0.,4.8,,0,0.,4.8,0.,4.8
1980-11-13 18:18:47.660 ,2,0,,0,0.,4.8,0.,4.8,,0,0.,4.8,0.,4.8
1980-11-13 18:18:52.460 ,2,0,,0,0.,4.8,0.,4.8,,0,0.,4.8,0.,4.8
1980-11-13 18:18:57.260 ,2,0,,0,0.,4.8,0.,4.8,,0,0.,4.8,0.,4.8
1980-11-13 18:19:02.060 ,1,0,,0,0.,4.8,0.,4.8,,0,0.,4.8,0.,4.8
1980-11-13 18:19:06.860 ,1,0,,0,0.,4.8,0.,4.8,,0,0.,4.8,0.,4.8
1980-11-13 18:19:11.660 ,1,0,,0,0.,4.8,0.,4.8,,0,0.,4.8,0.,4.8
1980-11-13 18:19:16.460 ,1,0,,0,0.,4.8,0.,4.8,,0,0.,4.8,0.,4.8
1980-11-13 18:19:21.260 ,1,0,,0,0.,4.8,0.,4.8,,0,0.,4.8,0.,4.8
1980-11-13 18:19:26.060 ,1,0,,0,0.,4.8,0.,4.8,,0,0.,4.8,0.,4.8
1980-11-13 18:19:30.860 ,1,0,,0,0.,4.8,0.,4.8,,0,0.,4.8,0.,4.8
1980-11-13 18:19:35.660 ,1,0,,0,0.,4.8,0.,4.8,,0,0.,4.8,0.,4.8
1980-11-13 18:19:40.460 ,1,0,,0,0.,4.8,0.,4.8,,0,0.,4.8,0.,4.8
1980-11-13 18:19:45.260 ,1,0,,0,0.,4.8,0.,4.8,,0,0.,4.8,0.,4.8
1980-11-13 18:19:50.060 ,0,0,,0,1.,4.8,0.,4.8,,0,0.,4.8,0.,4.8
1980-11-13 18:19:54.860 ,0,0,,0,0.,4.8,0.,4.8,,0,0.,4.8,0.,4.8
1980-11-13 18:19:59.660 ,0,0,,0,0.,4.8,0.,4.8,,0,0.,4.8,0.,4.8
1980-11-13 18:20:04.460 ,0,0,,0,1.,4.8,0.,4.8,,0,0.,4.8,0.,4.8
1980-11-13 18:20:09.260 ,0,0,,0,0.,4.8,0.,4.8,,0,0.,4.8,0.,4.8
1980-11-13 18:20:14.060 ,0,0,,0,0.,4.8,0.,4.8,,0,0.,4.8,0.,4.8
1980-11-13 18:20:18.860 ,0,0,,0,0.,4.8,0.,4.8,,0,0.,4.8,0.,4.8
1980-11-13 18:20:23.660 ,0,0,,0,0.,4.8,0.,4.8,,0,0.,4.8,0.,4.8
1980-11-13 18:20:28.460 ,0,0,,0,0.,4.8,0.,4.8,,0,0.,4.8,0.,4.8
1980-11-13 18:20:33.260 ,0,0,,0,0.,4.8,0.,4.8,,0,0.,4.8,0.,4.8
1980-11-13 18:20:38.060 ,0,0,,0,0.,4.8,0.,4.8,,0,0.,4.8,0.,4.8
1980-11-13 18:20:42.860 ,0,0,,0,0.,4.8,0.,4.8,,0,0.,4.8,0.,4.8
1980-11-13 18:20:47.660 ,0,0,,0,0.,4.8,0.,4.8,,0,0.,4.8,0.,4.8
1980-11-13 18:20:52.460 ,0,0,,0,0.,4.8,0.,4.8,,0,0.,4.8,0.,4.8
1980-11-13 18:20:57.260 ,0,0,,0,0.,4.8,0.,4.8,,0,0.,4.8,0.,4.8
1980-11-13 18:21:02.060 ,0,0,,0,0.,4.8,0.,4.8,,0,0.,4.8,0.,4.8
1980-11-13 18:21:06.860 ,0,0,,0,1.,4.8,0.,4.8,,0,0.,4.8,0.,4.8
1980-11-13 18:21:11.660 ,0,0,,0,0.,4.8,0.,4.8,,0,0.,4.8,0.,4.8
1980-11-13 18:21:16.460 ,0,0,,0,0.,4.8,0.,4.8,,0,0.,4.8,0.,4.8
1980-11-13 18:21:21.260 ,0,0,,0,0.,4.8,0.,4.8,,0,0.,4.8,0.,4.8
1980-11-13 18:21:26.060 ,1,0,,0,1.,4.8,0.,4.8,,0,0.,4.8,0.,4.8
1980-11-13 18:21:30.860 ,1,0,,0,1.,4.8,0.,4.8,,0,0.,4.8,0.,4.8
1980-11-13 18:21:35.660 ,1,0,,0,0.,4.8,0.,4.8,,0,0.,4.8,0.,4.8
1980-11-13 18:21:40.460 ,1,0,,0,0.,4.8,0.,4.8,,0,0.,4.8,0.,4.8
1980-11-13 18:21:45.260 ,1,0,,0,0.,4.8,0.,4.8,,0,0.,4.8,0.,4.8
1980-11-13 18:21:50.060 ,1,0,,0,0.,4.8,0.,4.8,,0,0.,4.8,0.,4.8
1980-11-13 18:21:54.860 ,1,0,,0,0.,4.8,0.,4.8,,0,0.,4.8,0.,4.8
1980-11-13 18:21:59.660 ,1,0,,0,1.,4.8,0.,4.8,,0,0.,4.8,0.,4.8
1980-11-13 18:22:04.460 ,1,0,,0,0.,4.8,0.,4.8,,0,0.,4.8,0.,4.8
1980-11-13 18:22:09.260 ,1,0,,0,0.,4.8,0.,4.8,,0,0.,4.8,0.,4.8
1980-11-13 18:22:14.060 ,2,0,,0,0.,4.8,0.,4.8,,0,0.,4.8,0.,4.8
1980-11-13 18:22:18.860 ,2,0,,0,0.,4.8,0.,4.8,,0,0.,4.8,0.,4.8
1980-11-13 18:22:23.660 ,2,0,,0,1.,4.8,0.,4.8,,0,0.,4.8,0.,4.8
1980-11-13 18:22:28.460 ,2,0,,0,0.,4.8,0.,4.8,,0,0.,4.8,0.,4.8
1980-11-13 18:22:33.260 ,2,0,,0,0.,4.8,0.,4.8,,0,0.,4.8,0.,4.8
1980-11-13 18:22:38.060 ,2,0,,0,0.,4.8,0.,4.8,,0,0.,4.8,0.,4.8
1980-11-13 18:22:42.860 ,2,0,,0,0.,4.8,0.,4.8,,0,0.,4.8,0.,4.8
1980-11-13 18:22:47.660 ,2,0,,0,0.,4.8,0.,4.8,,0,0.,4.8,0.,4.8
1980-11-13 18:22:52.460 ,2,0,,0,1.,4.8,0.,4.8,,0,0.,4.8,0.,4.8
1980-11-13 18:22:57.260 ,2,0,,0,0.,4.8,0.,4.8,,0,0.,4.8,0.,4.8
1980-11-13 18:23:02.060 ,3,0,,0,0.,4.8,0.,4.8,,0,0.,4.8,0.,4.8
1980-11-13 18:23:06.860 ,3,0,,0,1.,4.8,0.,4.8,,0,0.,4.8,0.,4.8
1980-11-13 18:23:11.660 ,3,0,,0,1.,4.8,0.,4.8,,0,0.,4.8,0.,4.8
1980-11-13 18:23:16.460 ,3,0,,0,1.,4.8,0.,4.8,,0,0.,4.8,0.,4.8
1980-11-13 18:23:21.260 ,3,0,,0,0.,4.8,0.,4.8,,0,0.,4.8,0.,4.8
1980-11-13 18:23:26.060 ,3,0,,0,1.,4.8,0.,4.8,,0,0.,4.8,0.,4.8
1980-11-13 18:23:30.860 ,3,0,,0,0.,4.8,0.,4.8,,0,0.,4.8,0.,4.8
1980-11-13 18:23:35.660 ,3,0,,0,0.,4.8,0.,4.8,,0,0.,4.8,0.,4.8
1980-11-13 18:23:40.460 ,3,0,,0,0.,4.8,0.,4.8,,0,0.,4.8,0.,4.8
1980-11-13 18:23:45.260 ,3,0,,0,0.,4.8,0.,4.8,,0,0.,4.8,0.,4.8
1980-11-13 18:23:50.060 ,4,0,,0,0.,4.8,0.,4.8,,0,0.,4.8,0.,4.8
1980-11-13 18:23:54.860 ,4,0,,0,0.,4.8,0.,4.8,,0,0.,4.8,0.,4.8
1980-11-13 18:23:59.660 ,4,0,,0,1.,4.8,0.,4.8,,0,0.,4.8,0.,4.8
1980-11-13 18:24:04.460 ,4,0,,0,0.,4.8,0.,4.8,,0,0.,4.8,0.,4.8
1980-11-13 18:24:09.260 ,4,0,,0,0.,4.8,0.,4.8,,0,0.,4.8,0.,4.8
1980-11-13 18:24:14.060 ,4,0,,0,0.,4.8,0.,4.8,,0,0.,4.8,0.,4.8
1980-11-13 18:24:18.860 ,4,0,,0,0.,4.8,0.,4.8,,0,0.,4.8,0.,4.8
1980-11-13 18:24:23.660 ,4,0,,0,0.,4.8,0.,4.8,,0,0.,4.8,0.,4.8
1980-11-13 18:24:28.460 ,4,0,,0,0.,4.8,0.,4.8,,0,0.,4.8,0.,4.8
1980-11-13 18:24:33.260 ,4,0,,0,0.,4.8,0.,4.8,,0,0.,4.8,0.,4.8
1980-11-13 18:24:38.060 ,5,0,,0,0.,4.8,0.,4.8,,0,0.,4.8,0.,4.8
1980-11-13 18:24:42.860 ,5,0,,0,0.,4.8,0.,4.8,,0,0.,4.8,0.,4.8
1980-11-13 18:24:47.660 ,5,0,,0,0.,4.8,0.,4.8,,0,0.,4.8,0.,4.8
1980-11-13 18:24:52.460 ,5,0,,0,0.,4.8,0.,4.8,,0,0.,4.8,0.,4.8
1980-11-13 18:24:57.260 ,5,0,,0,0.,4.8,0.,4.8,,0,0.,4.8,0.,4.8
1980-11-13 18:25:02.060 ,5,0,,0,0.,4.8,0.,4.8,,0,0.,4.8,0.,4.8
1980-11-13 18:25:06.860 ,5,0,,0,0.,4.8,0.,4.8,,0,0.,4.8,0.,4.8
1980-11-13 18:25:11.660 ,5,0,,0,0.,4.8,0.,4.8,,0,0.,4.8,0.,4.8
1980-11-13 18:25:16.460 ,5,0,,0,0.,4.8,0.,4.8,,0,0.,4.8,0.,4.8
1980-11-13 18:25:21.260 ,5,0,,0,0.,4.8,0.,4.8,,0,0.,4.8,0.,4.8
1980-11-13 18:25:26.060 ,6,0,,0,1.,4.8,0.,4.8,,0,0.,4.8,0.,4.8
1980-11-13 18:25:30.860 ,6,0,,0,0.,4.8,0.,4.8,,0,0.,4.8,0.,4.8
1980-11-13 18:25:35.660 ,6,0,,0,0.,4.8,0.,4.8,,0,0.,4.8,0.,4.8
1980-11-13 18:25:40.460 ,6,0,,0,0.,4.8,0.,4.8,,0,0.,4.8,0.,4.8
1980-11-13 18:25:45.260 ,6,0,,0,0.,4.8,0.,4.8,,0,0.,4.8,0.,4.8
1980-11-13 18:25:50.060 ,6,0,,0,1.,4.8,0.,4.8,,0,0.,4.8,0.,4.8
1980-11-13 18:25:54.860 ,6,0,,0,0.,4.8,0.,4.8,,0,0.,4.8,0.,4.8
1980-11-13 18:25:59.660 ,6,0,,0,0.,4.8,0.,4.8,,0,0.,4.8,0.,4.8
1980-11-13 18:26:04.460 ,6,0,,0,0.,4.8,0.,4.8,,0,0.,4.8,0.,4.8
1980-11-13 18:26:09.260 ,6,0,,0,0.,4.8,0.,4.8,,0,0.,4.8,0.,4.8
1980-11-13 18:26:14.060 ,7,0,,0,0.,4.8,0.,4.8,,0,0.,4.8,0.,4.8
1980-11-13 18:26:18.860 ,7,0,,0,0.,4.8,0.,4.8,,0,0.,4.8,0.,4.8
1980-11-13 18:26:23.660 ,7,0,,0,0.,4.8,0.,4.8,,0,0.,4.8,0.,4.8
1980-11-13 18:26:28.460 ,7,0,,0,0.,4.8,0.,4.8,,0,0.,4.8,0.,4.8
1980-11-13 18:26:33.260 ,7,0,,0,0.,4.8,0.,4.8,,0,0.,4.8,0.,4.8
1980-11-13 18:26:38.060 ,7,0,,0,0.,4.8,0.,4.8,,0,0.,4.8,0.,4.8
1980-11-13 18:26:42.860 ,7,0,,0,0.,4.8,0.,4.8,,0,0.,4.8,0.,4.8
1980-11-13 18:26:47.660 ,7,0,,0,0.,4.8,0.,4.8,,0,0.,4.8,0.,4.8
1980-11-13 18:26:52.460 ,7,0,,0,0.,4.8,0.,4.8,,0,0.,4.8,0.,4.8
1980-11-13 18:26:57.260 ,7,0,,0,2.,4.8,0.,4.8,,0,0.,4.8,0.,4.8
1980-11-13 18:27:02.060 ,7,0,,0,0.,4.8,0.,4.8,,0,0.,4.8,0.,4.8
1980-11-13 18:27:06.860 ,7,0,,0,0.,4.8,0.,4.8,,0,0.,4.8,0.,4.8
1980-11-13 18:27:11.660 ,7,0,,0,0.,4.8,0.,4.8,,0,0.,4.8,0.,4.8
1980-11-13 18:27:16.460 ,7,0,,0,0.,4.8,0.,4.8,,0,0.,4.8,0.,4.8
1980-11-13 18:27:21.260 ,7,0,,0,0.,4.8,0.,4.8,,0,0.,4.8,0.,4.8
1980-11-13 18:27:26.060 ,7,0,,0,0.,4.8,0.,4.8,,0,0.,4.8,0.,4.8
1980-11-13 18:27:30.860 ,7,0,,0,0.,4.8,0.,4.8,,0,0.,4.8,0.,4.8
1980-11-13 18:27:35.660 ,7,0,,0,1.,4.8,0.,4.8,,0,0.,4.8,0.,4.8
1980-11-13 18:27:40.460 ,7,0,,0,0.,4.8,0.,4.8,,0,0.,4.8,0.,4.8
1980-11-13 18:27:45.260 ,7,0,,0,0.,4.8,0.,4.8,,0,0.,4.8,0.,4.8
1980-11-13 18:27:50.060 ,6,0,,0,1.,4.8,0.,4.8,,0,0.,4.8,0.,4.8
1980-11-13 18:27:54.860 ,6,0,,0,0.,4.8,0.,4.8,,0,0.,4.8,0.,4.8
1980-11-13 18:27:59.660 ,6,0,,0,0.,4.8,0.,4.8,,0,0.,4.8,0.,4.8
1980-11-13 18:28:04.460 ,6,0,,0,1.,4.8,0.,4.8,,0,0.,4.8,0.,4.8
1980-11-13 18:28:09.260 ,6,0,,0,0.,4.8,0.,4.8,,0,0.,4.8,0.,4.8
1980-11-13 18:28:14.060 ,6,0,,0,0.,4.8,0.,4.8,,0,0.,4.8,0.,4.8
1980-11-13 18:28:18.860 ,6,0,,0,1.,4.8,0.,4.8,,0,0.,4.8,1.,4.8
1980-11-13 18:28:23.660 ,6,0,,0,0.,4.8,0.,4.8,,0,0.,4.8,0.,4.8
1980-11-13 18:28:28.460 ,6,0,,0,0.,4.8,0.,4.8,,0,0.,4.8,0.,4.8
1980-11-13 18:28:33.260 ,6,0,,0,0.,4.8,0.,4.8,,0,0.,4.8,0.,4.8
1980-11-13 18:28:38.060 ,5,0,,0,0.,4.8,0.,4.8,,0,0.,4.8,0.,4.8
1980-11-13 18:28:42.860 ,5,0,,0,0.,4.8,0.,4.8,,0,0.,4.8,0.,4.8
1980-11-13 18:28:47.660 ,5,0,,0,0.,4.8,0.,4.8,,0,0.,4.8,0.,4.8
1980-11-13 18:28:52.460 ,5,0,,0,0.,4.8,0.,4.8,,0,0.,4.8,0.,4.8
1980-11-13 18:28:57.260 ,5,0,,0,0.,4.8,0.,4.8,,0,0.,4.8,0.,4.8
1980-11-13 18:29:02.060 ,0,0,,0,0.,4.8,0.,4.8,,0,0.,4.8,0.,4.8
1980-11-13 18:29:06.860 ,0,0,,0,0.,4.8,0.,4.8,,0,0.,4.8,0.,4.8
1980-11-13 18:29:11.660 ,0,0,,0,0.,4.8,0.,4.8,,0,0.,4.8,0.,4.8
1980-11-13 18:29:16.460 ,0,0,,0,0.,4.8,0.,4.8,,0,0.,4.8,0.,4.8
1980-11-13 18:29:21.260 ,0,0,,0,1.,4.8,0.,4.8,,0,0.,4.8,0.,4.8
1980-11-13 18:30:34.460 ,0,0,,0,,0,,0,,0,,0,,0
1980-11-13 18:30:39.260 ,0,0,,0,,0,,0,,0,,0,,0
1980-11-13 18:30:44.060 ,0,0,,0,,0,,0,,0,,0,,0
1980-11-13 18:30:48.860 ,0,0,,0,,0,,0,,0,,0,,0
1980-11-13 18:30:53.660 ,0,0,,0,0.,4.8,0.,4.8,,0,0.,4.8,0.,4.8
1980-11-13 18:30:38.060 ,0,0,,0,0.,4.8,0.,4.8,,0,0.,4.8,0.,4.8
1980-11-13 18:30:42.860 ,0,0,,0,1.,4.8,0.,4.8,,0,0.,4.8,0.,4.8
1980-11-13 18:30:47.660 ,0,0,,0,1.,4.8,0.,4.8,,0,0.,4.8,0.,4.8
1980-11-13 18:30:52.460 ,0,0,,0,0.,4.8,0.,4.8,,0,0.,4.8,0.,4.8